Location: Orange Harbor Mobile Home Park
(26.6923°N, 81.7937°W)
Time: 08:37:52
(UTC+00:00)

SL-16 R/B - Pass Details

Date: 19 September 2020
Orbit: 842 x 847 km, 71.0° (Epoch: 29 October)

Event Time Altitude Azimuth Distance (km) Brightness Sun altitude
Rises 00:30:22 0° 325° (NW) 3,402 6.0 -14.8°
Reaches altitude 10° 00:33:08 10° 314° (NW) 2,463 5.5 -15.4°
Maximum altitude 00:37:49 27° 258° (WSW) 1,550 4.3 -16.4°
Drops below altitude 10° 00:42:30 10° 201° (SSW) 2,451 4.7 -17.5°
Sets 00:45:15 0° 190° (S) 3,382 5.3 -18.1°
